Погода в Новых Млынах

Украина / Черниговская область     51°45′53″N   31°49′33″E
темп.,
°C
ветер,
м/с
пор.,
м/с
влажн.,
%
обл.,
%
осадки,
мм/ч
давл.,
гПа
погр.,
м
16 сентября, чт
чт1600:00+9ссз22730 0.0 101920
03:00+7ссв337516 0.0 101935
06:00+7св337569 0.0 102029
09:00+11св34560 0.0 1020277
12:00+16ссв22370 0.0 10201136
15:00+18с22340 0.0 10191460
18:00+16ссв224482 0.0 101847
21:00+10в3357100 0.0 101933
17 сентября, пт
пт1700:00+11вюв355492 0.0 1018118
03:00+10юв3556100 0.0 1018105
06:00+12вюв3748100 0.0 1016207
09:00+10вюв3670100 0.5 1015144
12:00+10юв4977100 1.0 1014286
15:00+9вюв51091100 5.6 1013280
18:00+9вюв61292100 2.8 1012298
21:00+10в6129097 3.2 1012375
18 сентября, сб
сб1800:00+10в71393100 0.2 1011408
03:00+10в81593100 0.6 1010514
06:00+10в81490100 0.2 1009485
09:00+10вюв81596100 5.1 1008558
12:00+10вюв81596100 11.6 1007573
15:00+10вюв91695100 19.8 1007578
18:00+13юз3794100 0.6 1007326
21:00+13юв2397100 0.8 100981
19 сентября, вс
вс1900:00+13юв239793 0.2 101084
03:00+12юв359783 0.8 1011170
06:00+11юв349720 0.0 101192
09:00+13вюв3489100 0.0 1011377
12:00+14вюв348479 0.1 1011581
15:00+14вюв3485100 0.8 1011318
18:00+13в3589100 0.9 1010202
21:00+11всв4895100 1.5 1011275
20 сентября, пн
пн2000:00+10в4896100 0.6 1010396
03:00+10в5996100 2.6 1010412
06:00+9всв51096100 1.6 1009445
09:00+8всв5997100 9.9 1009455
12:00+8св5997100 5.1 1009470
15:00+8св5896100 7.3 1008490
18:00+7ссв4897100 3.3 1008396
21:00+7с4797100 5.3 1008380